[[{"header":{"parameterUnit":"m.s-1","parameterCategory":1,"la1":30.2991,"la2":30.254,"lo1":-89.0895,"lo2":-89.0444,"dy":0.0017,"dx":0.0017,"nx":28,"ny":28,"refTime":"2024-07-11T09:00:00:Z","depth":0,"parameterNumber":2,"parameterNumberName":"U-component_of_WINDS"},"data":[0,0,0,0,0,0,0,0,0,0,0,0,0,0,0,0,0,0,0,0,0,0,0,0,0,0,0,0,0,0,0,0,0,0,0,0,0,0,0,0,0,0,0,0,0,0,0,0,0,0,0,0,0,0,0,0,0,0,1.3631,1.3632,0,1.3722,1.3723,1.3724,1.37,1.3698,1.3696,1.3694,1.3794,1.3798,1.3803,0,0,0,0,0,0,0,0,0,0,0,0,0,1.344,1.3443,1.3631,1.3632,1.3633,1.3722,1.3723,1.3725,1.37,1.3698,1.3695,1.3693,1.3793,1.3798,1.3803,0,0,0,0,0,0,0,0,0,0,0,0,0,1.3526,1.3444,1.3631,1.3631,1.3632,1.3722,1.3724,1.3725,1.37,1.3698,1.3695,1.3692,1.3791,1.3797,1.3804,1.39,0,0,1.3824,1.3827,0,0,0,0,0,0,0,0,1.3521,1.3533,1.363,1.3631,1.3633,1.3697,1.3693,1.3784,1.3701,1.3675,1.3694,1.3691,1.3764,1.3773,1.3796,1.3905,1.3909,1.3825,1.3829,1.3831,1.3833,0,0,0,0,0,0,0,1.3515,1.3529,1.3667,1.3632,1.3633,1.3629,1.3638,1.371,1.3734,1.3677,1.3675,1.3686,1.3765,1.379,1.3799,1.3911,1.3824,1.383,1.3834,1.3837,1.4103,1.4106,0,0,0,0,0,0,1.3508,1.3524,1.3664,1.367,1.3569,1.3634,1.3645,1.3679,1.3733,1.3739,1.3688,1.3685,1.378,1.3791,1.3802,1.3918,1.3831,1.3837,1.3841,1.41,1.4104,1.4107,0,0,0,0,0,0,1.3504,1.352,1.3661,1.3597,1.3614,1.3641,1.3679,1.3682,1.3708,1.3742,1.3747,1.371,1.3778,1.3793,1.3876,1.3921,1.384,1.3846,1.4096,1.4101,1.4105,1.4152,0,0,0,0,0,0,1.3498,1.3519,1.3555,1.3598,1.3618,1.3731,1.3682,1.3686,1.3718,1.3714,1.3763,1.3769,1.3777,1.3866,1.3882,1.3929,1.3852,1.4092,1.4098,1.4104,1.4146,1.4158,1.4167,0,0,0,0,0,1.3491,1.3566,1.3557,1.3574,1.3663,1.3734,1.3746,1.3752,1.3722,1.3759,1.3781,1.3767,1.3914,1.3874,1.3893,1.3942,1.4089,1.4096,1.4103,1.4142,1.4155,1.4167,0,0,0,0,0,0,1.353,1.3571,1.3562,1.3652,1.3689,1.3729,1.3776,1.3766,1.3815,1.3809,1.3817,1.3829,1.3913,1.3936,1.3892,1.4038,1.3997,1.4008,1.402,1.4034,1.4044,1.4037,1.3857,0,0,0,0,0,1.3548,1.3601,1.3635,1.3711,1.373,1.375,1.3781,1.3783,1.3823,1.3839,1.3867,1.3908,1.3963,1.4,1.4052,1.4149,1.416,1.4192,1.4203,1.4211,1.4221,1.4274,1.4289,1.413,1.413,1.413,0,0,1.3588,1.3617,1.365,1.372,1.3749,1.3804,1.3764,1.3825,1.3866,1.3849,1.3928,1.395,1.3997,1.4087,1.4128,1.4109,1.4267,1.422,1.4226,1.4232,1.4283,1.4298,1.4311,1.4135,1.4134,1.4133,0,0,1.3689,1.3716,1.3782,1.3811,1.3855,1.3867,1.3883,1.3925,1.3938,1.4017,1.4005,1.4056,1.4151,1.4184,1.4214,1.4326,1.4315,1.4343,1.4398,1.4449,1.4462,1.4473,1.4513,1.4527,1.4352,1.4352,1.4353,0,1.3733,1.3815,1.3818,1.3879,1.391,1.3895,1.3962,1.3992,1.4052,1.4074,1.4051,1.4169,1.4199,1.4297,1.4324,1.4348,1.4367,1.4338,1.4459,1.447,1.4481,1.452,1.4535,1.4356,1.4355,1.4355,1.4355,0,1.3867,1.3924,1.3972,1.4028,1.4065,1.4129,1.4143,1.418,1.4179,1.4194,1.4275,1.431,1.437,1.4393,1.4393,1.4491,1.4477,1.4457,1.4416,1.4499,1.4535,1.455,1.436,1.4359,1.4358,1.4357,0,0,1.3996,1.405,1.4068,1.4093,1.414,1.4185,1.4249,1.4305,1.4337,1.4379,1.4433,1.4513,1.4494,1.4527,1.4531,1.4576,1.4662,1.455,1.4551,1.457,1.4773,1.4788,1.4805,1.4655,1.4658,1.466,1.4769,0,1.41,1.4211,1.4215,1.4317,1.437,1.4355,1.4411,1.4447,1.4463,1.4512,1.453,1.4586,1.4557,1.4576,1.462,1.4642,1.4703,1.4635,1.4708,1.471,1.4697,1.4824,1.4841,1.4942,1.4783,1.4786,1.4787,0,1.4238,1.4281,1.4387,1.4426,1.4448,1.4498,1.455,1.4596,1.4636,1.4645,1.4681,1.4678,1.4745,1.4701,1.4794,1.4747,1.4777,1.4792,1.4796,1.4804,1.4754,1.4836,1.4975,1.499,1.481,1.4808,1.4806,0,1.4321,1.4406,1.4481,1.4503,1.4549,1.4585,1.4606,1.4644,1.4677,1.4722,1.4744,1.4797,1.4827,1.4869,1.4881,1.4847,1.4974,1.493,1.4984,1.4984,1.5012,1.501,1.5158,1.503,1.503,1.503,1.5029,0,1.4438,1.4504,1.4519,1.4565,1.4638,1.4643,1.4716,1.4735,1.4768,1.4819,1.481,1.4858,1.487,1.4921,1.4931,1.5006,1.502,1.503,1.5032,1.5031,1.503,1.5051,1.5045,1.5034,1.5033,1.5032,1.5031,0,1.4544,1.4556,1.4637,1.4673,1.4684,1.4737,1.4769,1.4814,1.4828,1.4892,1.4908,1.4931,1.499,1.5005,1.5077,1.5083,1.5172,1.5168,1.5158,1.5158,1.521,1.5205,1.5378,1.5401,1.5258,1.5259,1.526,0,1.4618,1.4668,1.4709,1.4741,1.4764,1.4816,1.4849,1.4856,1.4891,1.494,1.4979,1.5037,1.5083,1.5178,1.5203,1.5257,1.5254,1.531,1.5262,1.526,1.5255,1.5252,1.5257,1.532,1.5321,1.5323,1.5324,0,1.4748,1.4751,1.4798,1.4848,1.4887,1.4926,1.4964,1.4992,1.5004,1.5044,1.5103,1.5139,1.521,1.5268,1.5322,1.5346,1.5338,1.5338,1.5354,1.5354,1.5346,1.5351,1.5183,1.5335,1.5334,1.5333,1.5332,1.5332,1.4841,1.4884,1.492,1.4973,1.5001,1.5036,1.508,1.5099,1.5147,1.5205,1.5206,1.5271,1.531,1.5382,1.5408,1.546,1.5443,1.5465,1.5471,1.5476,1.5481,1.5337,1.547,1.547,1.547,1.5469,1.5469,0,1.4971,1.4992,1.5041,1.5093,1.5134,1.512,1.5161,1.5197,1.5253,1.529,1.5335,1.5403,1.5458,1.5486,1.5541,1.5577,1.5575,1.5592,1.559,1.5595,1.5493,1.5474,1.5593,1.5593,1.5593,1.5593,1.5593,1.5593,1.5043,1.5116,1.5123,1.521,1.5232,1.5294,1.5318,1.5351,1.538,1.5455,1.5501,1.5517,1.5551,1.5608,1.5659,1.5666,1.5687,1.5706,1.5711,1.5615,1.5602,1.559,1.5573,1.571,1.5711,1.5809,1.581,1.5811]},{"header":{"parameterUnit":"m.s-1","parameterCategory":1,"la1":30.2991,"la2":30.254,"lo1":-89.0895,"lo2":-89.0444,"dy":0.0017,"dx":0.0017,"nx":28,"ny":28,"refTime":"2024-07-11T09:00:00:Z","depth":0,"parameterNumber":3,"parameterNumberName":"V-component_of_WINDS"},"data":[0,0,0,0,0,0,0,0,0,0,0,0,0,0,0,0,0,0,0,0,0,0,0,0,0,0,0,0,0,0,0,0,0,0,0,0,0,0,0,0,0,0,0,0,0,0,0,0,0,0,0,0,0,0,0,0,0,0,2.0278,2.0277,0,2.0198,2.0197,2.0196,2.0175,2.0176,2.0176,2.0177,2.0089,2.0086,2.0083,0,0,0,0,0,0,0,0,0,0,0,0,0,2.0406,2.0403,2.0278,2.0277,2.0276,2.0198,2.0197,2.0196,2.0175,2.0176,2.0177,2.0177,2.009,2.0087,2.0083,0,0,0,0,0,0,0,0,0,0,0,0,0,2.034,2.0403,2.0278,2.0256,2.0254,2.0199,2.0197,2.0196,2.0175,2.0176,2.0177,2.0177,2.0091,2.0087,2.0083,2.0042,0,0,2.007,2.0068,0,0,0,0,0,0,0,0,2.0344,2.0336,2.0261,2.0258,2.0255,2.0198,2.021,2.0144,2.0175,2.0205,2.0177,2.0178,2.0124,2.0117,2.01,2.0038,2.0034,2.007,2.0067,2.0065,2.0064,0,0,0,0,0,0,0,2.0349,2.0339,2.0246,2.026,2.0256,2.0248,2.024,2.0197,2.0161,2.0202,2.0201,2.0192,2.0123,2.0105,2.0098,2.0032,2.007,2.0066,2.0063,2.0062,1.9929,1.9928,0,0,0,0,0,0,2.0358,2.0343,2.0249,2.0244,2.0302,2.0246,2.0236,2.0215,2.0161,2.0154,2.0191,2.0191,2.0111,2.0103,2.0095,2.0041,2.0065,2.0061,2.0059,1.993,1.9928,1.9927,0,0,0,0,0,0,2.0361,2.035,2.0252,2.0293,2.028,2.0243,2.0219,2.0213,2.0195,2.0153,2.0146,2.018,2.0112,2.0101,2.0055,2.0038,2.0059,2.0055,1.9931,1.9929,1.9928,1.9935,0,0,0,0,0,0,2.0364,2.0351,2.0336,2.0293,2.0278,2.0215,2.0218,2.0211,2.0189,2.0188,2.0141,2.0133,2.0111,2.0061,2.0051,2.0033,2.0052,1.9932,1.993,1.9928,1.9936,1.9934,1.9932,0,0,0,0,0,2.0369,2.0341,2.0336,2.0325,2.026,2.0214,2.0206,2.0183,2.0187,2.0171,2.0144,2.0135,2.0042,2.0057,2.0045,2.0025,1.9933,1.9931,1.9929,1.9937,1.9934,1.9932,0,0,0,0,0,0,2.0382,2.0335,2.0329,2.0286,2.0255,2.0211,2.019,2.0181,2.0146,2.0146,2.0117,2.0107,2.0062,2.0039,2.0056,1.9981,1.9987,1.9982,1.9998,1.9995,1.9993,1.9998,2.0049,0,0,0,0,0,2.038,2.0349,2.0309,2.0275,2.026,2.0228,2.0207,2.0193,2.0158,2.0144,2.0113,2.0078,2.0041,2.0017,1.998,1.9933,1.9921,1.9913,1.9911,1.991,1.9905,1.9876,1.9871,1.992,1.992,1.992,0,0,2.0375,2.0346,2.0328,2.0277,2.0251,2.0217,2.0217,2.0182,2.0156,2.0138,2.0092,2.0069,2.0027,1.998,1.9958,1.9959,1.9889,1.9907,1.9906,1.9902,1.9873,1.9868,1.9864,1.9918,1.9919,1.9919,0,0,2.0349,2.0325,2.0293,2.0267,2.0228,2.0207,2.0199,2.0157,2.0141,2.0095,2.008,2.0048,1.9985,1.9956,1.9932,1.9894,1.9883,1.9883,1.9871,1.9843,1.9839,1.9835,1.9819,1.9814,1.9879,1.9879,1.9879,0,2.0347,2.0298,2.0277,2.0243,2.0219,2.0204,2.0169,2.0144,2.0095,2.0078,2.0081,2.0001,1.9972,1.9916,1.9907,1.9889,1.9877,1.9887,1.9842,1.9838,1.9834,1.9818,1.9812,1.9879,1.9879,1.9879,1.9879,0,2.0297,2.0263,2.0242,2.0196,2.017,2.0136,2.0107,2.0083,2.0071,2.0048,2.0,1.9965,1.992,1.9906,1.9893,1.9848,1.985,1.9848,1.9853,1.983,1.9814,1.9808,1.9879,1.9879,1.9879,1.9879,0,0,2.0276,2.0219,2.0211,2.0189,2.0144,2.0116,2.008,2.0038,2.0017,1.9983,1.995,1.9897,1.9895,1.9868,1.9851,1.9827,1.9795,1.9827,1.9825,1.982,1.974,1.974,1.9733,1.9788,1.9787,1.9786,1.9742,0,2.0242,2.018,2.0159,2.0106,2.0073,2.0056,2.0025,1.9992,1.997,1.9937,1.9911,1.9873,1.9874,1.9858,1.9833,1.9804,1.9778,1.9807,1.9754,1.9753,1.9763,1.9725,1.9726,1.9686,1.9736,1.9735,1.9734,0,2.0195,2.0162,2.0106,2.0064,2.0049,2.0021,1.9979,1.9949,1.9911,1.9896,1.9867,1.9851,1.981,1.9819,1.976,1.9781,1.9757,1.974,1.9738,1.973,1.9741,1.9714,1.9673,1.9666,1.9725,1.9726,1.9727,0,2.0183,2.0124,2.0082,2.0064,2.0014,1.9995,1.9973,1.9936,1.9911,1.9874,1.9857,1.9815,1.9792,1.9759,1.9731,1.9741,1.9673,1.9681,1.9657,1.9658,1.9642,1.9643,1.9594,1.9632,1.9632,1.9632,1.9632,0,2.0146,2.0112,2.0075,2.0049,2.0009,1.9985,1.9945,1.9922,1.9889,1.9856,1.9839,1.9808,1.9775,1.9739,1.9717,1.967,1.966,1.9645,1.9639,1.9645,1.9647,1.9628,1.9629,1.963,1.9631,1.9631,1.9631,0,2.0125,2.01,2.0052,2.001,1.9998,1.997,1.9932,1.9905,1.9882,1.9841,1.9829,1.9792,1.9749,1.9719,1.9663,1.9648,1.9596,1.9592,1.9609,1.9606,1.9583,1.9584,1.9518,1.9507,1.9554,1.9554,1.9554,0,2.0102,2.0076,2.003,2.0008,1.9986,1.9951,1.9926,1.99,1.9874,1.9828,1.9805,1.9761,1.9724,1.9655,1.9621,1.9577,1.957,1.955,1.9563,1.9569,1.9566,1.9567,1.9563,1.9547,1.9547,1.9547,1.9546,0,2.0064,2.0053,2.0019,1.9979,1.995,1.9917,1.9884,1.9866,1.9834,1.9805,1.9761,1.9733,1.9676,1.9631,1.9584,1.9558,1.9545,1.9543,1.9534,1.9539,1.9549,1.9541,1.9601,1.9544,1.9544,1.9544,1.9544,1.9545,2.004,2.0014,1.9978,1.994,1.9912,1.9882,1.9853,1.9827,1.9791,1.9744,1.973,1.9684,1.9643,1.9579,1.9553,1.9514,1.9515,1.9504,1.9501,1.9498,1.9496,1.9558,1.9506,1.9506,1.9506,1.9506,1.9506,0,1.9998,1.9974,1.994,1.9894,1.9863,1.9857,1.982,1.9793,1.9753,1.9718,1.9682,1.963,1.9586,1.955,1.9503,1.9479,1.9472,1.9468,1.9468,1.9461,1.9499,1.951,1.9474,1.9474,1.9474,1.9474,1.9474,1.9474,1.9973,1.9929,1.9913,1.9854,1.983,1.9786,1.9764,1.9735,1.9707,1.965,1.9614,1.9591,1.9554,1.9505,1.9463,1.9453,1.9436,1.9432,1.942,1.9456,1.9459,1.9463,1.9472,1.9429,1.9429,1.9385,1.9385,1.9385]}]]